Location: Amsterdam
(30.7274°N, 84.4357°W)
Time: 23:52:40
(UTC+00:00)

Explorer 11/Cluster Stage 4 - All Passes

Search period start: 16 February 2026 00:00
Search period end: 26 February 2026 00:00
Orbit: 463 x 1177 km, 28.8° (Epoch: 16 February)

Date Brightness Start Highest point End Pass type
(mag) Time Alt. Az. Time Alt. Az. Time Alt. Az.
16 Feb - 00:41:49 10° WSW 00:45:06 23° SSW 00:48:52 10° SSE visible
16 Feb - 17:11:10 10° S 17:12:46 12° SSE 17:14:19 10° SE daylight
16 Feb - 18:56:12 10° SW 18:59:48 34° SSE 19:03:07 10° E daylight
16 Feb - 20:43:14 10° WSW 20:46:50 63° S 20:50:27 10° E daylight
16 Feb - 22:30:25 10° W 22:33:56 49° S 22:37:47 10° ESE daylight
17 Feb - 00:17:59 10° WSW 00:21:00 21° SSW 00:24:23 10° SSE visible
17 Feb - 16:46:24 10° S 16:48:39 13° SSE 16:50:44 10° SE daylight
17 Feb - 18:31:55 10° SW 18:35:44 36° SSE 18:39:10 10° E daylight
17 Feb - 20:19:07 10° W 20:22:49 64° S 20:26:23 10° E daylight
17 Feb - 22:06:25 10° W 22:09:53 47° S 22:13:34 10° ESE daylight
17 Feb - 23:54:08 10° WSW 23:56:54 19° SSW 23:59:55 10° SSE visible
18 Feb - 16:21:40 10° SSW 16:24:30 15° SSE 16:27:03 10° ESE daylight
18 Feb - 18:07:34 10° SW 18:11:40 38° SSE 18:15:14 10° E daylight
18 Feb - 19:54:57 10° W 19:58:47 64° S 20:02:20 10° E daylight
18 Feb - 21:42:23 10° W 21:45:51 46° S 21:49:24 10° ESE daylight
18 Feb - 23:30:16 10° WSW 23:32:48 17° SSW 23:35:31 10° SSE daylight
19 Feb - 15:56:57 10° SSW 16:00:19 17° SSE 16:03:18 10° ESE daylight
19 Feb - 17:43:09 10° WSW 17:47:33 40° SSE 17:51:18 10° E daylight
19 Feb - 19:30:42 10° W 19:34:43 65° S 19:38:20 10° E daylight
19 Feb - 21:18:16 10° W 21:21:48 45° SSW 21:25:16 10° ESE daylight
19 Feb - 23:06:22 10° WSW 23:08:42 16° SSW 23:11:08 10° SSE daylight
20 Feb - 15:32:12 10° SSW 15:36:05 19° SSE 15:39:30 10° ESE daylight
20 Feb - 17:18:40 10° WSW 17:23:24 43° SSE 17:27:21 10° E daylight
20 Feb - 19:06:23 10° W 19:10:38 67° S 19:14:20 10° E daylight
20 Feb - 20:54:07 10° W 20:57:44 45° SSW 21:01:10 10° ESE daylight
20 Feb - 22:42:24 10° WSW 22:44:35 15° SSW 22:46:48 10° SSE daylight
21 Feb - 15:07:27 10° SSW 15:11:49 21° SSE 15:15:37 10° ESE daylight
21 Feb - 16:54:08 10° WSW 16:59:13 46° SSE 17:03:24 10° E daylight
21 Feb - 18:42:00 10° W 18:46:31 68° S 18:50:21 10° E daylight
21 Feb - 20:29:53 10° W 20:33:39 45° SSW 20:37:06 10° ESE daylight
21 Feb - 22:18:23 10° WSW 22:20:28 15° SSW 22:22:33 10° SSE daylight
22 Feb - 14:42:41 10° SSW 14:47:31 23° SSE 14:51:42 10° ESE daylight
22 Feb - 16:29:32 10° WSW 16:34:59 48° SSE 16:39:26 10° E daylight
22 Feb - 18:17:33 10° W 18:22:22 69° S 18:26:22 10° E daylight
22 Feb - 20:05:35 10° W 20:09:32 45° SSW 20:13:04 10° ESE daylight
22 Feb - 21:54:17 10° WSW 21:56:20 14° SSW 21:58:20 10° S daylight
23 Feb - 14:17:53 10° SSW 14:23:09 25° SSE 14:27:42 10° ESE daylight
23 Feb - 16:04:54 10° WSW 16:10:43 51° SSE 16:15:26 10° E daylight
23 Feb - 17:53:02 10° W 17:58:11 70° S 18:02:23 10° E daylight
23 Feb - 19:41:12 10° W 19:45:24 46° SSW 19:49:02 10° ESE daylight
23 Feb - 21:30:05 10° WSW 21:32:10 14° SSW 21:34:11 10° S daylight
24 Feb - 13:53:06 10° SSW 13:58:45 26° SSE 14:03:39 10° ESE daylight
24 Feb - 15:40:13 10° WSW 15:46:24 53° SSE 15:51:23 10° E daylight
24 Feb - 17:28:28 10° W 17:33:57 72° S 17:38:22 10° E daylight
24 Feb - 19:16:46 10° W 19:21:14 46° SSW 19:25:01 10° ESE daylight
24 Feb - 21:05:47 10° WSW 21:08:00 14° SSW 21:10:05 10° S daylight
25 Feb - 13:28:18 10° SSW 13:34:18 28° SSE 13:39:33 10° E daylight
25 Feb - 15:15:31 10° WSW 15:22:01 56° SSE 15:27:19 10° E daylight
25 Feb - 17:03:51 10° W 17:09:40 73° S 17:14:21 10° E daylight
25 Feb - 18:52:16 10° W 18:57:02 48° SSW 19:00:59 10° ESE daylight
25 Feb - 20:41:25 10° WSW 20:43:48 15° SSW 20:46:02 10° S daylight
